Tracking 25378 objects as of 22-Jan-2022
HD Live streaming from Space Station
objects crossing your sky now

STARLINK-3083

Track STARLINK-3083 now!
10-day predictions
STARLINK-3083 is classified as:


NORAD ID: 49158
Int'l Code: 2021-082AE
Perigee: 369.3 km
Apogee: 374.4 km
Inclination: 70.0 °
Period: 91.8 minutes
Semi major axis: 6742 km
RCS: Unknown
Launch date: September 14, 2021
Source: United States (US)
Launch site: AIR FORCE WESTERN TEST RANGE (AFWTR)
aabbcc
Your satellite tracking list
Your tracking list is empty




NASA's NSSDC Master Catalog

Two Line Element Set (TLE):
1 49158U 21082AE  22021.91667824 -.00658448  00000-0 -64117-2 0  9998
2 49158  69.9999 122.0056 0003796 270.2318  53.5448 15.67972162 21563
Source of the keplerian elements: AFSPC